Regional Weather Roundup
Issued by NWS Little Rock, AR

Home | Current Version | Previous Version | Text Only | Print | Product List | Glossary Off
Versions: 1 2 3 4 5 6 7 8 9 10 11 12 13 14 15 16 17 18 19 20 21 22 23 24 25 26 27 28 29 30 31 32

000
ASUS44 KLZK 220005
RWRLZK

WEATHER ROUNDUP FOR ARKANSAS
NATIONAL WEATHER SERVICE LITTLE ROCK AR
700 PM CDT SAT OCT 21 2017

NOTE: "FAIR" INDICATES FEW OR NO CLOUDS BELOW 12,000 FEET WITH NO
SIGNIFICANT WEATHER AND/OR OBSTRUCTIONS TO VISIBILITY.

ARZ001-003-010-029-220100-
NORTHWEST ARKANSAS

CITY           SKY/WX    TMP DP  RH WIND       PRES   REMARKS
FAYETTEVILLE   MOCLDY    72  67  84 SE10      29.91S
6HR MIN TEMP:  72; 6HR MAX TEMP:  79;

FORT SMITH     CLOUDY    78  68  71 SE8       29.90R
6HR MIN TEMP:  78; 6HR MAX TEMP:  84;

HARRISON       LGT RAIN  70  65  84 SE10      29.96F
6HR MIN TEMP:  70; 6HR MAX TEMP:  76; 6HR PCP: TRACE;

BENTONVILLE    PTCLDY    72  64  76 S13       29.92R
6HR MIN TEMP:  72; 6HR MAX TEMP:  79; 6HR PCP: TRACE;

ROGERS         MOCLDY    72  64  76 SE12      29.92R
6HR MIN TEMP:  72; 6HR MAX TEMP:  78;

SILOAM SPGS    CLEAR     73  64  73 S12       29.90R
6HR MIN TEMP:  73; 6HR MAX TEMP:  79;

HIGHFILL       CLEAR     73  65  75 SE14      29.90R
6HR MIN TEMP:  73; 6HR MAX TEMP:  78; 6HR PCP: TRACE;

SPRINGDALE     MOCLDY    73  66  78 SE8       29.94R
$$

ARZ004-005-016-220100-
NORTH CENTRAL ARKANSAS

CITY           SKY/WX    TMP DP  RH WIND       PRES   REMARKS
BATESVILLE     CLOUDY    73  69  87 E3        29.99F
6HR MIN TEMP:  73; 6HR MAX TEMP:  78; 6HR PCP: TRACE;

FLIPPIN        CLOUDY    73  66  78 SE6       29.98R
6HR MIN TEMP:  72; 6HR MAX TEMP:  76;

MTN HOME       CLOUDY    72  67  84 S6        29.97S
6HR MIN TEMP:  71; 6HR MAX TEMP:  74;

$$

ARZ040-041-220100-
WEST CENTRAL ARKANSAS

CITY           SKY/WX    TMP DP  RH WIND       PRES   REMARKS
MENA           MOCLDY    77  73  88 CALM      29.93S
$$

ARZ009-017-025-026-028-220100-
NORTHEAST ARKANSAS

CITY           SKY/WX    TMP DP  RH WIND       PRES   REMARKS
JONESBORO      PTCLDY    77  63  61 SE14      30.02R
6HR MIN TEMP:  77; 6HR MAX TEMP:  87; 6HR PCP: TRACE;

NEWPORT        PTCLDY    77  64  64 SE12      30.00R
6HR MIN TEMP:  77; 6HR MAX TEMP:  83;

WALNUT RIDGE     N/A     79  63  57 MISG        N/A
6HR MIN TEMP:  79; 6HR MAX TEMP:  85;

BLYTHEVILLE    CLEAR     73  63  70 SE7       30.06R
6HR MIN TEMP:  73; 6HR MAX TEMP:  83;

$$

ARZ022-023-033-042-044-220100-
CENTRAL ARKANSAS

CITY           SKY/WX    TMP DP  RH WIND       PRES   REMARKS
LITTLE ROCK    MOCLDY    74  70  87 S3        29.97S
6HR MIN TEMP:  74; 6HR MAX TEMP:  81; 6HR PCP:  0.04;

N LITTLE ROCK    N/A     76  69  79 CALM      29.99R
6HR MIN TEMP:  76; 6HR MAX TEMP:  80;

JACKSONVILLE   CLOUDY    75  74  98 CALM      29.97R
6HR MIN TEMP:  75; 6HR MAX TEMP:  81; 6HR PCP:  0.03;

SEARCY         CLOUDY    77  68  73 SE7       29.99R
6HR MIN TEMP:  77; 6HR MAX TEMP:  82;

HOT SPRINGS    MOCLDY    78  68  71 SE8       29.96R
6HR MIN TEMP:  73; 6HR MAX TEMP:  82;

RUSSELLVILLE   CLEAR     73  68  84 E6        29.93S
6HR MIN TEMP:  71; 6HR MAX TEMP:  77;

CLINTON        FAIR      73  68  83 E3        29.97S
$$

ARZ036-220100-
EAST ARKANSAS

CITY           SKY/WX    TMP DP  RH WIND       PRES   REMARKS
WEST MEMPHIS   CLOUDY    75  64  68 SE12      30.03S
6HR MIN TEMP:  75; 6HR MAX TEMP:  83; 6HR PCP: TRACE;

$$

ARZ050-053-066-070-073-220100-
SOUTHWEST ARKANSAS

CITY           SKY/WX    TMP DP  RH WIND       PRES   REMARKS
ARKADELPHIA    FAIR      76  69  79 CALM      29.96R
6HR MIN TEMP:  76; 6HR MAX TEMP:  84; 6HR PCP: TRACE;

CAMDEN         PTCLDY    77  70  78 SE5       29.97R
TEXARKANA      PTCLDY    79  67  66 SE5       29.91S
6HR MIN TEMP:  79; 6HR MAX TEMP:  86;

EL DORADO      PTCLDY    78  73  84 SE8       29.98R
6HR MIN TEMP:  78; 6HR MAX TEMP:  84;

DE QUEEN       PTCLDY    77  71  82 E6        29.87F
6HR MIN TEMP:  77; 6HR MAX TEMP:  85;

$$

ARZ056-057-069-220100-
SOUTHEAST ARKANSAS

CITY           SKY/WX    TMP DP  RH WIND       PRES   REMARKS
PINE BLUFF     CLOUDY    77  67  71 SE13      29.99R
6HR MIN TEMP:  77; 6HR MAX TEMP:  84;

STUTTGART      PTCLDY    78  66  66 SE8       30.00R
6HR MIN TEMP:  78; 6HR MAX TEMP:  85;

MONTICELLO     MOCLDY    74  70  87 E7        30.01R
6HR MIN TEMP:  74; 6HR MAX TEMP:  85; 6HR PCP:  0.17;


$$






USA.gov is the U.S. government's official web portal to all federal, state and local government web resources and services.